TimeEST,TemperatureF,Dew PointF,Humidity,Sea Level PressureIn,VisibilityMPH,Wind Direction,Wind SpeedMPH,Gust SpeedMPH,PrecipitationIn,Events,Conditions,WindDirDegrees,DateUTC
12:15 AM,57.2,55.4,94,30.19,9.0,North,5.8,-,N/A,,Unknown,10,2013-01-08 05:15:00
12:35 AM,57.2,55.4,94,30.20,9.0,North,3.5,-,N/A,,Unknown,10,2013-01-08 05:35:00
1:15 AM,57.2,57.2,100,30.19,8.0,NNE,4.6,-,N/A,,Unknown,30,2013-01-08 06:15:00
1:35 AM,57.2,57.2,100,30.19,8.0,North,5.8,-,N/A,,Unknown,360,2013-01-08 06:35:00
1:55 AM,57.2,57.2,100,30.18,9.0,NNE,5.8,-,N/A,,Unknown,30,2013-01-08 06:55:00
2:15 AM,57.2,57.2,100,30.18,8.0,North,4.6,-,N/A,,Unknown,10,2013-01-08 07:15:00
2:35 AM,59.0,57.2,94,30.17,7.0,NNE,9.2,-,N/A,,Unknown,30,2013-01-08 07:35:00
2:55 AM,60.8,57.2,88,30.17,8.0,NE,5.8,-,N/A,,Unknown,40,2013-01-08 07:55:00
3:15 AM,60.8,59.0,94,30.17,7.0,NE,6.9,-,N/A,,Unknown,50,2013-01-08 08:15:00
3:35 AM,60.8,59.0,94,30.17,8.0,NNE,4.6,-,N/A,,Unknown,20,2013-01-08 08:35:00
3:55 AM,60.8,59.0,94,30.17,7.0,NNE,5.8,-,N/A,,Unknown,20,2013-01-08 08:55:00
4:15 AM,60.8,59.0,94,30.17,7.0,NNE,5.8,-,N/A,,Unknown,30,2013-01-08 09:15:00
4:35 AM,60.8,59.0,94,30.16,7.0,NNE,4.6,-,N/A,,Unknown,30,2013-01-08 09:35:00
4:55 AM,60.8,59.0,94,30.16,6.0,Calm,Calm,-,N/A,,Mist,0,2013-01-08 09:55:00
5:15 AM,60.8,59.0,94,30.17,5.0,Calm,Calm,-,N/A,,Mist,0,2013-01-08 10:15:00
5:35 AM,60.8,60.8,100,30.17,5.0,Calm,Calm,-,N/A,,Mist,0,2013-01-08 10:35:00
5:55 AM,60.8,60.8,100,30.18,5.0,Calm,Calm,-,N/A,,Mist,0,2013-01-08 10:55:00
6:15 AM,60.8,60.8,100,30.19,5.0,NNE,3.5,-,N/A,,Mist,30,2013-01-08 11:15:00
6:35 AM,60.8,60.8,100,30.19,5.0,NNE,3.5,-,N/A,,Mist,20,2013-01-08 11:35:00
6:55 AM,60.8,60.8,100,30.20,4.0,Calm,Calm,-,N/A,,Mist,0,2013-01-08 11:55:00
7:15 AM,59.0,59.0,100,30.21,4.0,Calm,Calm,-,N/A,,Mist,0,2013-01-08 12:15:00
7:35 AM,59.0,59.0,100,30.21,3.0,Calm,Calm,-,N/A,,Mist,0,2013-01-08 12:35:00
7:55 AM,60.8,60.8,100,30.22,3.0,Calm,Calm,-,N/A,,Mist,0,2013-01-08 12:55:00
8:15 AM,60.8,60.8,100,30.23,4.0,NNE,3.5,-,N/A,,Mist,30,2013-01-08 13:15:00
8:55 AM,64.4,62.6,94,30.24,5.0,Calm,Calm,-,N/A,,Mist,0,2013-01-08 13:55:00
9:15 AM,66.2,64.4,94,30.25,7.0,NE,6.9,-,N/A,,Unknown,40,2013-01-08 14:15:00
9:35 AM,69.8,64.4,83,30.25,8.0,NNE,4.6,-,N/A,,Unknown,30,2013-01-08 14:35:00
9:55 AM,71.6,66.2,83,30.26,7.0,ENE,5.8,-,N/A,,Unknown,60,2013-01-08 14:55:00
10:35 AM,73.4,66.2,78,30.25,10.0,NE,9.2,-,N/A,,Unknown,50,2013-01-08 15:35:00
10:55 AM,73.4,66.2,78,30.25,9.0,NE,5.8,-,N/A,,Unknown,50,2013-01-08 15:55:00
11:15 AM,75.2,66.2,73,30.24,10.0,ENE,9.2,-,N/A,,Unknown,70,2013-01-08 16:15:00
11:35 AM,75.2,66.2,73,30.23,10.0,East,6.9,-,N/A,,Unknown,90,2013-01-08 16:35:00
11:55 AM,75.2,66.2,73,30.23,9.0,ENE,4.6,-,N/A,,Unknown,60,2013-01-08 16:55:00
12:15 PM,75.2,66.2,73,30.22,10.0,NNE,5.8,-,N/A,,Unknown,30,2013-01-08 17:15:00
12:55 PM,78.8,66.2,65,30.19,10.0,ENE,9.2,-,N/A,,Unknown,70,2013-01-08 17:55:00
1:15 PM,77.0,66.2,69,30.19,10.0,ENE,9.2,-,N/A,,Unknown,60,2013-01-08 18:15:00
1:35 PM,78.8,66.2,65,30.18,10.0,ENE,8.1,-,N/A,,Unknown,60,2013-01-08 18:35:00
1:55 PM,77.0,66.2,69,30.18,10.0,NE,8.1,-,N/A,,Unknown,40,2013-01-08 18:55:00
2:15 PM,77.0,66.2,69,30.18,10.0,ENE,6.9,-,N/A,,Unknown,60,2013-01-08 19:15:00
2:35 PM,78.8,66.2,65,30.17,10.0,NE,8.1,-,N/A,,Unknown,50,2013-01-08 19:35:00
2:55 PM,80.6,66.2,61,30.16,10.0,NE,8.1,-,N/A,,Unknown,50,2013-01-08 19:55:00
3:15 PM,78.8,64.4,61,30.16,10.0,ENE,8.1,-,N/A,,Unknown,70,2013-01-08 20:15:00
3:35 PM,77.0,66.2,69,30.16,10.0,NE,8.1,-,N/A,,Unknown,40,2013-01-08 20:35:00
3:55 PM,78.8,66.2,65,30.16,10.0,NE,6.9,-,N/A,,Unknown,50,2013-01-08 20:55:00
4:15 PM,77.0,66.2,69,30.17,10.0,ENE,5.8,-,N/A,,Unknown,60,2013-01-08 21:15:00
4:35 PM,78.8,66.2,65,30.17,10.0,NE,5.8,-,N/A,,Unknown,50,2013-01-08 21:35:00
4:55 PM,77.0,66.2,69,30.18,10.0,NNE,9.2,-,N/A,,Unknown,30,2013-01-08 21:55:00
5:15 PM,75.2,66.2,73,30.18,10.0,NNE,6.9,-,N/A,,Unknown,20,2013-01-08 22:15:00
5:35 PM,73.4,66.2,78,30.18,10.0,NE,9.2,-,N/A,,Unknown,40,2013-01-08 22:35:00
5:55 PM,73.4,66.2,78,30.18,10.0,NE,8.1,-,N/A,,Unknown,50,2013-01-08 22:55:00
6:15 PM,73.4,66.2,78,30.19,10.0,NE,9.2,-,N/A,,Unknown,40,2013-01-08 23:15:00
6:35 PM,71.6,66.2,83,30.19,10.0,NE,9.2,-,N/A,,Unknown,40,2013-01-08 23:35:00
6:55 PM,71.6,66.2,83,30.20,10.0,NE,6.9,-,N/A,,Unknown,40,2013-01-08 23:55:00
7:35 PM,69.8,66.2,88,30.20,10.0,ENE,5.8,-,N/A,,Unknown,60,2013-01-09 00:35:00
7:55 PM,69.8,66.2,88,30.21,10.0,NE,9.2,-,N/A,,Unknown,50,2013-01-09 00:55:00
8:15 PM,69.8,66.2,88,30.20,10.0,ENE,8.1,-,N/A,,Unknown,60,2013-01-09 01:15:00
8:35 PM,69.8,66.2,88,30.20,10.0,ENE,9.2,-,N/A,,Unknown,70,2013-01-09 01:35:00
8:55 PM,68.0,66.2,94,30.20,10.0,ENE,6.9,-,N/A,,Unknown,60,2013-01-09 01:55:00
9:15 PM,68.0,66.2,94,30.21,10.0,Calm,Calm,-,N/A,,Unknown,0,2013-01-09 02:15:00
9:35 PM,68.0,66.2,94,30.21,10.0,NNE,5.8,-,N/A,,Unknown,30,2013-01-09 02:35:00
9:55 PM,68.0,66.2,94,30.22,10.0,NE,5.8,-,N/A,,Unknown,50,2013-01-09 02:55:00
10:35 PM,66.2,66.2,100,30.23,10.0,NE,6.9,-,N/A,,Unknown,50,2013-01-09 03:35:00
10:55 PM,68.0,66.2,94,30.23,9.0,NE,5.8,-,N/A,,Unknown,50,2013-01-09 03:55:00
11:15 PM,68.0,66.2,94,30.23,1.2,NE,6.9,-,N/A,,Mist,40,2013-01-09 04:15:00
11:35 PM,68.0,68.0,100,30.23,4.0,NE,6.9,-,N/A,,Mist,50,2013-01-09 04:35:00
11:55 PM,68.0,68.0,100,30.23,7.0,NNE,8.1,-,N/A,,Unknown,30,2013-01-09 04:55:00